Theta_e
324 322 322 311 307 307 306 307 307 313 320 320 321 321 321 321 320 317 307 307 307 307 307 306 307 307 308 307 307 307 306 306 306 305 305 305 305 305 305 305 304 303 303
324 321 324 310 307 307 307 308 307 316 320 320 320 320 320 320 320 314 308 308 308 310 310 309 308 308 308 308 307 307 307 307 306 306 306 306 306 305 305 305 305 305 305
325 320 325 312 308 308 308 311 313 314 317 319 319 321 320 320 320 315 308 309 311 312 311 311 310 310 309 310 310 310 310 310 309 309 308 308 307 307 306 306 306 306 306
323 323 325 317 310 309 318 318 319 320 319 318 320 321 320 320 319 318 309 310 312 312 312 312 311 311 311 311 311 310 310 311 310 310 310 309 308 308 307 307 307 306 305
323 321 323 316 313 314 320 321 320 319 318 318 320 320 320 320 320 318 318 311 311 311 311 311 311 311 311 311 311 311 310 311 311 311 311 310 309 307 307 307 306 306 306
321 318 321 317 316 314 320 321 320 318 318 319 319 320 319 320 320 320 319 317 317 316 314 311 312 311 312 312 312 312 312 312 311 311 310 310 310 309 308 307 307 306 307
320 321 320 319 322 320 320 321 319 318 318 318 318 318 318 318 319 320 320 320 320 319 319 318 318 318 318 317 316 313 312 313 314 313 312 312 311 310 308 307 307 307 307
320 321 321 322 321 322 321 320 318 318 318 317 317 317 316 317 317 318 318 319 319 319 319 319 318 317 318 318 317 315 315 316 315 315 315 314 314 313 312 311 310 308 308
318 317 318 318 323 322 322 320 318 317 317 316 316 316 315 315 315 316 315 317 317 318 318 318 318 318 317 317 317 317 317 317 317 316 316 315 314 314 312 311 310 310 309
316 316 320 319 321 322 320 320 319 317 315 316 316 316 316 318 320 319 317 317 316 316 316 316 316 316 316 317 317 318 317 317 316 316 315 315 315 313 312 311 310 310 310
316 317 320 320 320 321 321 321 318 314 314 317 317 316 317 320 320 319 320 320 319 319 319 318 318 317 316 317 317 317 317 317 316 316 315 315 314 313 311 311 310 310 310
317 318 319 319 317 318 318 316 315 315 315 315 319 318 317 320 320 319 318 317 317 317 317 317 320 319 319 318 318 317 316 316 316 315 314 315 314 313 312 309 309 308 308
314 317 318 318 319 319 317 317 317 317 315 317 320 320 319 319 319 318 317 317 317 317 317 318 319 319 320 320 320 320 319 317 318 317 318 317 315 312 313 311 309 308 307
314 314 317 318 318 319 317 315 316 316 317 319 319 320 318 317 317 317 318 318 317 317 317 317 316 316 316 316 317 318 319 319 319 318 317 316 315 314 313 312 310 309 307
314 314 316 316 317 316 315 314 313 313 318 318 317 319 317 317 317 317 317 317 318 318 318 317 317 317 317 317 316 318 318 318 318 318 318 317 316 315 313 312 310 309 309
322 316 316 315 315 317 318 316 314 315 314 318 319 318 317 317 317 317 317 317 318 318 319 318 317 316 317 318 318 317 318 318 317 317 318 317 316 315 312 311 310 310 308
322 322 321 316 313 311 312 314 314 314 315 313 314 316 317 317 317 317 317 317 317 318 319 319 318 318 318 318 319 317 317 317 317 316 316 316 316 312 312 311 310 308 307
322 322 322 322 319 314 311 312 313 314 315 315 313 315 317 318 317 317 317 317 317 316 316 317 319 318 318 318 319 318 317 318 316 315 315 315 316 312 311 309 308 307 306
322 322 321 322 322 322 320 315 313 314 314 315 316 315 315 316 318 317 317 317 317 317 317 318 320 319 318 318 319 318 318 317 316 315 315 314 314 311 308 307 306 304 303
323 323 322 322 322 322 321 321 319 317 317 318 316 316 316 315 315 315 316 317 317 318 319 319 320 319 318 319 318 318 317 316 315 313 312 312 309 307 305 303 301 296 293
323 323 323 323 323 322 322 322 321 320 320 320 319 318 317 316 316 316 317 317 318 319 319 317 318 319 318 318 315 315 316 315 314 310 308 307 305 303 300 301 302 297 291
325 325 324 324 323 323 322 322 322 322 321 320 319 319 318 319 318 318 318 318 319 320 320 319 318 318 318 319 318 314 312 311 308 307 304 304 303 303 302 296 294 292 290
325 325 325 325 325 324 323 323 323 322 322 321 321 321 320 319 319 319 320 320 321 321 321 320 319 318 318 318 317 313 312 309 307 305 304 301 300 299 295 293 292 291 290
326 325 325 325 325 325 325 324 324 323 323 322 321 321 320 320 320 321 321 321 321 321 320 320 319 317 316 315 313 310 308 304 302 300 299 298 297 295 292 291 290 289 288
326 326 326 325 324 324 324 325 324 323 322 322 322 321 321 320 320 321 320 321 320 318 318 317 313 310 308 307 305 304 301 299 297 295 295 295 293 289 288 287 288 287 288
328 327 327 326 325 324 324 324 324 324 324 324 323 323 323 322 321 321 321 320 318 316 312 306 303 302 300 298 298 297 297 296 295 291 288 287 286 286 288 288 288 287 287
Wind_Speed
33 32 29 29 29 28 29 30 33 37 33 26 28 14 11 12 8 8 19 18 17 16 15 15 14 14 13 13 13 13 12 11 10 9 9 9 8 7 7 7 7 8 8
35 37 33 33 31 30 30 30 32 37 25 23 26 19 11 13 8 8 18 18 16 15 15 15 14 14 13 13 12 12 11 11 10 9 9 8 7 7 6 6 6 6 6
36 35 35 33 33 32 32 30 29 26 24 19 25 12 14 12 10 10 16 17 17 16 15 15 14 14 13 13 12 12 11 10 10 8 7 7 6 4 4 4 4 3 4
39 37 36 34 34 34 32 30 27 24 23 21 31 17 13 12 10 8 15 16 17 16 15 14 13 12 12 11 10 10 9 9 8 7 6 5 4 4 4 2 1 2 2
40 37 37 35 35 37 30 30 28 29 24 24 27 21 19 14 13 12 11 14 14 14 14 14 13 12 11 10 10 10 10 8 8 7 6 6 6 5 5 4 3 2 2
39 37 36 34 32 35 29 32 25 27 24 23 23 23 21 17 15 15 13 14 13 13 13 14 12 13 11 11 12 12 11 11 11 11 10 9 8 8 8 8 6 5 5
39 38 36 38 35 34 34 31 27 28 27 25 23 21 20 20 19 19 16 16 16 16 15 15 15 15 15 13 15 17 17 16 14 14 13 13 12 12 12 11 11 11 10
38 41 39 37 36 35 32 32 31 31 29 26 25 25 24 21 21 21 22 22 20 21 21 19 19 19 19 18 17 17 19 19 17 20 18 16 15 15 16 16 17 16 16
44 43 44 36 32 40 36 33 34 34 33 30 27 23 14 14 26 28 27 28 27 26 25 25 25 26 25 24 22 22 23 22 22 23 23 24 21 20 21 21 21 21 21
39 40 32 34 29 33 36 37 34 36 32 34 31 30 20 14 12 12 26 26 25 24 26 29 30 28 27 27 26 26 27 26 26 27 26 27 29 28 25 25 24 24 23
42 40 39 37 36 37 37 38 36 36 33 34 35 35 28 19 14 8 8 16 21 22 26 28 28 30 30 29 30 30 29 31 32 32 29 29 29 30 31 29 28 27 25
44 39 38 39 38 38 38 37 37 37 35 33 33 37 34 28 22 19 17 18 20 23 24 26 27 29 30 31 34 36 35 34 34 34 33 34 30 30 32 33 33 31 30
48 44 40 42 40 38 41 38 39 38 36 35 31 31 30 32 26 20 20 22 24 25 27 30 27 27 30 31 32 33 36 37 35 34 36 34 34 33 32 35 35 35 35
51 49 43 46 43 43 40 37 37 39 36 36 33 35 33 31 29 29 27 28 30 32 30 34 32 31 31 32 33 33 36 37 38 39 37 36 35 34 33 34 35 35 35
50 50 50 49 48 47 43 39 38 38 38 40 42 39 36 34 32 34 35 34 33 32 37 38 36 33 34 34 31 31 34 33 30 37 38 37 35 34 35 35 34 33 33
45 52 51 54 51 48 45 43 43 41 43 43 43 43 40 39 36 36 38 38 38 37 38 40 40 39 39 40 37 33 32 32 29 30 32 32 34 35 35 34 33 32 31
39 46 50 57 59 60 55 52 50 51 49 50 50 49 48 47 46 43 42 40 41 41 44 47 46 44 42 46 45 42 38 38 33 30 33 34 34 36 35 34 31 31 32
38 39 43 52 58 64 61 62 58 55 55 55 55 54 55 54 53 50 47 48 48 49 50 50 51 49 47 46 47 44 40 40 38 37 38 36 38 38 34 32 31 32 32
40 38 40 44 50 53 59 67 67 63 60 60 56 58 59 59 57 55 54 54 55 53 50 51 50 49 47 47 45 44 47 43 45 47 41 40 38 36 32 28 29 30 31
43 43 44 44 45 47 48 55 64 66 64 64 65 61 60 60 60 58 56 53 51 49 49 50 50 47 45 44 40 45 49 44 48 46 40 38 36 30 25 24 24 25 26
43 44 45 46 45 47 49 48 50 55 57 58 60 62 61 61 61 59 56 54 52 53 47 44 47 45 47 46 50 51 50 47 43 46 42 36 31 27 24 25 27 24 26
44 44 47 47 48 48 48 48 47 48 50 52 54 56 57 56 54 53 53 52 52 53 53 51 49 48 53 52 50 49 43 40 38 41 39 34 32 28 26 20 22 24 24
47 50 49 48 50 50 49 49 47 47 48 51 52 54 55 55 54 52 49 50 54 54 53 51 52 52 54 53 51 48 44 41 38 38 35 32 29 26 16 20 24 24 27
48 50 51 53 52 54 52 51 49 48 49 51 50 52 52 50 48 48 49 51 53 55 54 50 50 51 49 50 44 37 33 31 29 26 23 21 18 14 18 24 27 27 26
48 49 49 50 52 53 54 52 48 49 50 51 53 53 51 50 49 52 51 50 49 49 49 49 44 33 30 27 25 23 27 25 19 13 12 13 13 16 23 23 23 25 28
46 46 46 46 47 48 49 50 50 49 51 55 57 59 58 57 53 53 54 51 48 45 38 28 21 23 21 20 20 18 17 12 10 5 9 13 18 18 19 19 23 23 25
Wind_Direction
176 174 175 171 167 167 166 164 161 158 153 157 153 156 167 188 204 198 178 166 167 162 160 159 155 155 150 150 154 153 152 149 150 146 143 141 138 135 125 123 117 102 92
183 172 176 171 169 167 167 167 160 159 153 156 147 180 183 190 206 185 180 171 168 166 165 164 161 159 156 160 159 157 156 156 156 152 150 144 144 145 142 126 110 97 84
180 175 176 173 169 165 166 166 163 164 168 163 155 168 174 188 207 191 188 178 171 168 168 166 166 167 162 167 165 164 160 155 154 154 152 160 159 154 138 126 110 98 78
176 175 178 177 171 167 163 167 163 170 174 174 164 162 186 199 203 193 190 189 185 183 181 179 179 179 177 181 185 187 181 178 173 179 178 183 185 181 175 162 142 73 41
178 179 180 179 175 169 168 164 177 181 177 169 170 177 185 193 205 197 190 201 203 208 206 199 199 200 203 210 214 216 213 211 217 217 215 217 219 215 215 219 233 302 333
182 183 179 182 174 177 174 176 184 175 174 175 180 182 186 197 211 214 213 205 212 218 224 221 218 219 224 236 240 239 241 241 243 242 241 245 249 243 244 247 258 272 290
176 179 182 182 181 182 182 182 183 175 181 184 181 181 190 201 213 222 228 230 228 234 233 231 233 237 243 248 251 248 250 255 255 249 252 256 259 261 259 265 273 276 279
175 184 187 185 187 189 189 186 181 182 185 181 186 188 193 200 209 214 217 229 235 243 245 244 248 248 250 251 253 249 253 256 260 267 267 263 270 272 271 273 275 277 282
185 188 193 192 190 188 185 187 190 191 187 189 197 192 187 213 217 219 223 223 228 235 243 248 255 255 253 253 255 255 255 259 259 260 258 265 262 262 267 270 275 279 283
190 185 190 196 201 201 203 204 203 201 199 194 198 212 211 203 190 212 224 229 231 233 239 245 248 254 257 258 261 262 262 263 265 261 258 256 263 267 266 268 269 273 278
192 195 201 203 206 204 202 207 210 207 207 207 205 209 214 206 199 208 205 219 223 245 249 249 252 254 257 260 263 266 267 264 264 261 259 258 258 259 264 268 271 273 274
199 205 206 211 210 212 213 212 213 215 213 223 214 218 217 215 230 235 239 254 249 250 256 260 254 255 258 262 265 267 266 265 265 264 261 264 258 258 257 261 264 267 269
201 205 206 208 216 214 212 214 218 220 223 218 218 219 223 227 229 237 242 246 263 261 258 261 260 260 260 263 266 267 267 262 263 265 266 267 259 257 257 256 257 260 261
206 208 214 215 215 215 215 223 224 228 225 217 222 227 227 230 237 244 248 258 249 256 259 261 261 262 267 273 275 275 269 258 258 261 262 261 255 255 257 258 257 259 262
216 217 221 220 220 223 224 222 227 228 227 227 234 230 232 234 236 241 249 253 256 254 257 262 261 264 271 274 276 276 267 255 263 263 261 259 253 254 256 256 257 260 263
226 225 225 225 226 226 226 229 232 232 232 230 230 235 238 241 243 245 253 257 254 256 258 265 267 272 279 274 272 277 267 254 263 262 260 258 258 255 255 255 257 260 262
228 229 231 230 230 234 234 235 235 237 238 239 239 242 245 249 249 254 258 259 259 262 257 265 271 274 274 278 276 281 276 262 265 268 264 262 257 251 252 253 254 257 265
230 233 234 234 235 236 238 239 238 238 238 238 240 244 246 251 254 257 258 260 262 267 269 267 270 272 275 277 272 274 282 272 268 273 272 263 268 252 250 247 255 258 264
236 234 232 232 234 237 240 240 242 243 243 244 243 245 248 249 252 255 257 261 265 270 268 266 267 271 275 276 270 272 264 263 258 266 262 258 259 245 247 250 253 264 269
236 239 241 239 237 237 239 240 242 243 246 248 247 249 252 254 255 256 257 261 267 267 267 269 269 271 271 272 275 272 269 256 278 259 252 250 244 235 239 252 264 273 275
238 238 239 242 242 244 242 240 240 242 243 247 248 248 251 255 257 260 258 265 266 263 261 268 268 267 265 263 274 278 271 269 270 254 246 237 227 232 231 246 253 266 273
245 243 242 241 241 241 244 246 245 244 245 246 248 249 251 253 253 255 257 263 262 261 262 266 266 258 264 271 276 271 259 258 243 242 233 230 229 230 239 251 272 271 272
243 243 244 245 247 247 247 247 245 245 246 248 250 250 250 252 253 255 255 253 253 260 263 267 267 263 261 267 276 263 258 251 237 231 225 223 228 234 257 261 260 265 272
246 245 244 244 245 249 250 249 248 245 247 250 252 253 253 255 256 252 249 250 254 260 263 262 257 257 263 265 255 254 250 237 224 219 223 226 231 243 243 254 264 270 269
247 248 248 247 247 251 250 249 247 246 247 250 250 252 253 252 252 252 252 254 260 265 264 265 266 260 252 246 237 229 211 205 203 212 229 258 268 264 259 262 271 269 271
251 248 249 250 252 251 251 249 246 245 244 243 244 247 250 252 252 253 253 254 256 249 247 242 222 208 198 187 190 189 194 212 211 234 248 248 257 268 281 271 268 271 271